| time (UTC) | temp C | wind direction | speed KPH | gust KPH | rain 1hr cm | rain 24hr cm | rain mn cm | humidity % | barometer mb |
| 20260903073016 | 20 | 219 | 0.0 | 0.0 | 0.00 | 0.30 | 0.00 | 94 | 1008.3 |
| 20260903071515 | 20 | 211 | 0.0 | 0.0 | 0.00 | 0.30 | 0.00 | 92 | 1008.2 |
| 20260903070015 | 20 | 211 | 0.0 | 0.0 | 0.00 | 1.37 | 0.00 | 92 | 1008.3 |
| 20260903064513 | 20 | 222 | 0.0 | 0.0 | 0.00 | 1.37 | 0.00 | 92 | 1008.5 |
| 20260903063010 | 20 | 222 | 0.0 | 0.0 | 0.00 | 1.37 | 0.00 | 92 | 1008.5 |
| 20260903061507 | 21 | 222 | 0.0 | 0.0 | 0.00 | 1.37 | 0.00 | 93 | 1008.6 |
| 20260903060006 | 20 | 222 | 0.0 | 0.0 | 0.00 | 1.37 | 0.00 | 92 | 1008.6 |
| 20260903054506 | 20 | 227 | 0.0 | 0.0 | 0.00 | 1.37 | 0.00 | 91 | 1008.7 |
| 20260903053002 | 21 | 227 | 0.0 | 0.0 | 0.00 | 1.37 | 0.00 | 91 | 1008.7 |
| 20260903051503 | 21 | 227 | 0.0 | 0.0 | 0.00 | 1.37 | 0.00 | 92 | 1008.8 |
| 20260903050106 | 21 | 227 | 0.0 | 0.0 | 0.00 | 1.37 | 0.00 | 91 | 1008.7 |
| 20260903044603 | 21 | 228 | 0.0 | 0.0 | 0.00 | 1.37 | 0.00 | 91 | 1008.6 |
| 20260903043109 | 21 | 228 | 0.0 | 0.0 | 0.00 | 1.37 | 0.00 | 91 | 1008.7 |
| 20260903041556 | 21 | 228 | 0.0 | 0.0 | 0.00 | 1.37 | 0.00 | 90 | 1008.8 |
| 20260903040055 | 21 | 248 | 0.0 | 0.0 | 0.00 | 1.37 | 0.00 | 90 | 1008.8 |
| 20260903034556 | 21 | 250 | 0.0 | 0.0 | 0.00 | 1.37 | 0.00 | 90 | 1008.8 |
| 20260903033048 | 22 | 252 | 0.0 | 0.0 | 0.00 | 1.37 | 0.00 | 90 | 1008.9 |
| 20260903031553 | 22 | 220 | 0.0 | 0.0 | 0.00 | 1.37 | 0.00 | 89 | 1008.9 |
| 20260903030047 | 22 | 175 | 0.0 | 0.0 | 0.00 | 1.37 | 0.00 | 89 | 1009.0 |
| 20260903024543 | 22 | 227 | 0.0 | 0.0 | 0.00 | 1.37 | 0.00 | 88 | 1008.9 |
| 20260903023039 | 22 | 248 | 0.0 | 0.0 | 0.00 | 1.37 | 0.00 | 87 | 1009.0 |
| 20260903021548 | 23 | 215 | 0.0 | 0.0 | 0.00 | 1.37 | 0.00 | 87 | 1008.7 |
| 20260903020035 | 23 | 215 | 0.0 | 0.0 | 0.00 | 1.37 | 0.00 | 85 | 1008.6 |
| 20260903014533 | 23 | 215 | 0.0 | 0.0 | 0.00 | 1.37 | 0.00 | 84 | 1008.5 |
| 20260903013100 | 24 | 215 | 0.0 | 0.0 | 0.00 | 1.37 | 0.00 | 82 | 1008.3 |
| 20260903011602 | 24 | 215 | 0.0 | 0.0 | 0.00 | 1.37 | 0.00 | 81 | 1008.3 |
| 20260903010025 | 25 | 215 | 0.0 | 0.0 | 0.00 | 1.37 | 0.00 | 78 | 1008.2 |
| 20260903004524 | 26 | 215 | 0.0 | 0.0 | 0.00 | 1.37 | 0.00 | 74 | 1008.1 |
| 20260903003051 | 27 | 160 | 0.0 | 1.6 | 0.00 | 1.37 | 0.00 | 68 | 1008.2 |
| 20260903001551 | 28 | 163 | 0.0 | 0.0 | 0.00 | 1.37 | 0.00 | 66 | 1008.1 |
| 20260903000049 | 28 | 169 | 0.0 | 0.0 | 0.00 | 1.37 | 0.00 | 63 | 1008.1 |
| 20260902234547 | 29 | 188 | 0.0 | 8.0 | 0.00 | 1.37 | 0.00 | 61 | 1008.1 |
| 20260902233046 | 30 | 121 | 0.0 | 6.4 | 0.00 | 1.37 | 0.00 | 59 | 1008.0 |
| 20260902231545 | 30 | 118 | 1.6 | 11.3 | 0.00 | 1.37 | 0.00 | 58 | 1008.1 |
| 20260902230019 | 31 | 109 | 0.0 | 6.4 | 0.00 | 1.37 | 0.00 | 57 | 1008.2 |
| 20260902224516 | 31 | 81 | 0.0 | 6.4 | 0.00 | 1.37 | 0.00 | 55 | 1008.2 |
| 20260902223044 | 31 | 113 | 4.8 | 12.9 | 0.00 | 1.37 | 0.00 | 56 | 1008.1 |
| 20260902221544 | 31 | 122 | 1.6 | 11.3 | 0.00 | 1.37 | 0.00 | 56 | 1008.2 |
| 20260902220045 | 31 | 117 | 3.2 | 11.3 | 0.00 | 1.37 | 0.00 | 56 | 1008.3 |
| 20260902214539 | 31 | 90 | 1.6 | 11.3 | 0.00 | 1.37 | 0.00 | 56 | 1008.3 |
| 20260902213037 | 31 | 97 | 4.8 | 12.9 | 0.00 | 1.37 | 0.00 | 55 | 1008.4 |
| 20260902211543 | 31 | 109 | 8.0 | 16.1 | 0.00 | 1.37 | 0.00 | 54 | 1008.4 |
| 20260902210105 | 32 | 71 | 3.2 | 11.3 | 0.00 | 1.37 | 0.00 | 52 | 1008.5 |
| 20260902204539 | 31 | 119 | 0.0 | 14.5 | 0.00 | 1.37 | 0.00 | 54 | 1008.6 |
| 20260902203033 | 31 | 66 | 4.8 | 14.5 | 0.00 | 1.37 | 0.00 | 55 | 1008.6 |
| 20260902201534 | 31 | 126 | 1.6 | 14.5 | 0.00 | 1.37 | 0.00 | 54 | 1008.7 |
| 20260902200025 | 30 | 5 | 1.6 | 8.0 | 0.00 | 1.37 | 0.00 | 58 | 1008.8 |
| 20260902194525 | 30 | 291 | 0.0 | 8.0 | 0.00 | 1.37 | 0.00 | 59 | 1009.0 |
| 20260902193020 | 31 | 49 | 0.0 | 12.9 | 0.00 | 1.37 | 0.00 | 55 | 1009.2 |
| 20260902191518 | 31 | 126 | 4.8 | 14.5 | 0.00 | 1.37 | 0.00 | 55 | 1009.2 |
| 20260902190014 | 30 | 84 | 0.0 | 11.3 | 0.00 | 1.37 | 0.00 | 57 | 1009.2 |
| 20260902184512 | 30 | 121 | 8.0 | 14.5 | 0.00 | 1.37 | 0.00 | 57 | 1009.3 |
| 20260902183008 | 30 | 182 | 0.0 | 6.4 | 0.00 | 1.37 | 0.00 | 56 | 1009.7 |
| 20260902181504 | 31 | 53 | 0.0 | 3.2 | 0.00 | 1.37 | 0.00 | 56 | 1009.9 |
| 20260902180116 | 30 | 119 | 3.2 | 12.9 | 0.00 | 1.37 | 0.00 | 56 | 1010.0 |
| 20260902174559 | 29 | 125 | 0.0 | 3.2 | 0.00 | 1.37 | 0.00 | 59 | 1010.2 |
| 20260902173051 | 30 | 110 | 0.0 | 4.8 | 0.00 | 1.37 | 0.00 | 59 | 1010.4 |
| 20260902171547 | 28 | 71 | 0.0 | 8.0 | 0.00 | 1.37 | 0.00 | 64 | 1010.5 |
| 20260902170042 | 27 | 49 | 0.0 | 6.4 | 0.00 | 1.37 | 0.00 | 65 | 1010.3 |
| 20260902164535 | 26 | 86 | 0.0 | 6.4 | 0.00 | 1.37 | 0.00 | 68 | 1010.5 |
| 20260902163032 | 26 | 138 | 1.6 | 11.3 | 0.00 | 1.37 | 0.00 | 68 | 1010.6 |
| 20260902161527 | 26 | 132 | 3.2 | 14.5 | 0.00 | 1.37 | 0.00 | 70 | 1010.4 |
| 20260902160021 | 26 | 122 | 1.6 | 9.7 | 0.00 | 1.37 | 1.37 | 69 | 1010.4 |
| 20260902154552 | 25 | 116 | 0.0 | 14.5 | 0.00 | 1.37 | 1.37 | 71 | 1010.5 |
| 20260902153051 | 25 | 185 | 0.0 | 9.7 | 0.00 | 1.37 | 1.37 | 73 | 1010.5 |
| 20260902151550 | 24 | 150 | 1.6 | 11.3 | 0.00 | 1.37 | 1.37 | 75 | 1010.4 |
| 20260902150047 | 22 | 212 | 0.0 | 8.0 | 0.00 | 1.37 | 1.37 | 80 | 1010.2 |
| 20260902144559 | 22 | 173 | 1.6 | 11.3 | 0.00 | 1.37 | 1.37 | 80 | 1010.4 |
| 20260902143046 | 22 | 178 | 1.6 | 8.0 | 0.00 | 1.37 | 1.37 | 81 | 1010.8 |
| 20260902141518 | 21 | 180 | 0.0 | 9.7 | 0.00 | 1.37 | 1.37 | 80 | 1010.6 |
| 20260902140014 | 21 | 165 | 0.0 | 12.9 | 0.00 | 1.37 | 1.37 | 82 | 1010.5 |
| 20260902134516 | 20 | 157 | 0.0 | 12.9 | 0.00 | 1.37 | 1.37 | 85 | 1010.6 |
| 20260902133012 | 20 | 170 | 4.8 | 12.9 | 0.00 | 1.37 | 1.37 | 88 | 1010.7 |
| 20260902131511 | 18 | 173 | 0.0 | 8.0 | 0.00 | 1.37 | 1.37 | 91 | 1011.0 |
| 20260902130011 | 18 | 196 | 0.0 | 3.2 | 0.00 | 1.37 | 1.37 | 92 | 1011.0 |
| 20260902124508 | 17 | 234 | 0.0 | 0.0 | 0.00 | 1.37 | 1.37 | 91 | 1010.4 |
| 20260902123007 | 17 | 343 | 0.0 | 0.0 | 0.00 | 1.37 | 1.37 | 91 | 1010.5 |
| 20260902121505 | 17 | 205 | 0.0 | 0.0 | 0.00 | 1.37 | 1.37 | 91 | 1010.1 |
| 20260902120005 | 17 | 5 | 0.0 | 0.0 | 0.00 | 1.37 | 1.37 | 90 | 1010.8 |
| 20260902114502 | 17 | 261 | 0.0 | 0.0 | 0.00 | 1.37 | 1.37 | 89 | 1011.2 |
| 20260902113001 | 17 | 184 | 0.0 | 0.0 | 0.00 | 1.37 | 1.37 | 88 | 1011.5 |
| 20260902111600 | 18 | 240 | 0.0 | 1.6 | 0.00 | 1.37 | 1.37 | 87 | 1011.9 |
| 20260902110106 | 18 | 188 | 1.6 | 9.7 | 0.00 | 1.37 | 1.37 | 89 | 1011.9 |
| 20260902104538 | 18 | 232 | 1.6 | 24.1 | 0.00 | 1.37 | 1.37 | 89 | 1012.2 |
| 20260902103026 | 18 | 225 | 9.7 | 17.7 | 0.00 | 1.37 | 1.37 | 90 | 1012.4 |
| 20260902101529 | 19 | 173 | 1.6 | 6.4 | 0.00 | 1.37 | 1.37 | 89 | 1010.6 |
| 20260902100021 | 19 | 167 | 1.6 | 12.9 | 0.00 | 1.37 | 1.37 | 89 | 1010.3 |
| 20260902094520 | 19 | 157 | 0.0 | 6.4 | 0.00 | 1.37 | 1.37 | 88 | 1010.0 |
| 20260902093032 | 19 | 115 | 0.0 | 12.9 | 0.00 | 1.37 | 1.37 | 88 | 1010.0 |
| 20260902091517 | 19 | 82 | 3.2 | 11.3 | 0.03 | 1.37 | 1.37 | 89 | 1010.2 |
| 20260902090017 | 19 | 114 | 0.0 | 6.4 | 0.05 | 1.37 | 1.37 | 90 | 1011.0 |
| 20260902084515 | 19 | 80 | 3.2 | 8.0 | 0.10 | 1.37 | 1.37 | 90 | 1010.5 |
| 20260902083015 | 19 | 293 | 0.0 | 4.8 | 0.13 | 1.37 | 1.37 | 90 | 1010.2 |
| 20260902081512 | 19 | 219 | 0.0 | 17.7 | 0.20 | 1.35 | 1.35 | 87 | 1010.2 |
| 20260902080010 | 19 | 59 | 0.0 | 8.0 | 0.56 | 1.32 | 1.32 | 87 | 1010.4 |
| 20260902074509 | 19 | 221 | 0.0 | 11.3 | 1.07 | 1.27 | 1.27 | 90 | 1010.8 |